Time,TemperatureF,DewpointF,PressureIn,WindDirection,WindDirectionDegrees,WindSpeedMPH,WindSpeedGustMPH,Humidity,HourlyPrecipIn,Conditions,Clouds,dailyrainin,SoftwareType,DateUTC
2013-09-25 00:11:00,44.8,43.0,29.93,NE,44,0.0,1.0,94,0.00,,,0.00,weatherlink.com 1.10,2013-09-25 04:11:00,
2013-09-25 00:25:00,44.7,43.0,29.93,NE,44,0.0,1.0,95,0.00,,,0.00,weatherlink.com 1.10,2013-09-25 04:25:00,
2013-09-25 00:41:00,44.8,44.0,29.93,NE,44,0.0,1.0,95,0.00,,,0.00,weatherlink.com 1.10,2013-09-25 04:41:00,
2013-09-25 00:55:00,44.4,43.0,29.93,NE,44,0.0,0.0,95,0.00,,,0.00,weatherlink.com 1.10,2013-09-25 04:55:00,
2013-09-25 01:11:00,44.5,43.0,29.93,NE,44,0.0,0.0,95,0.00,,,0.00,weatherlink.com 1.10,2013-09-25 05:11:00,
2013-09-25 01:25:00,44.2,43.0,29.93,NE,44,0.0,0.0,95,0.00,,,0.00,weatherlink.com 1.10,2013-09-25 05:25:00,
2013-09-25 01:41:00,44.4,43.0,29.93,NE,44,0.0,0.0,95,0.00,,,0.00,weatherlink.com 1.10,2013-09-25 05:41:00,
2013-09-25 01:57:00,44.2,43.0,29.92,NE,44,0.0,0.0,95,0.00,,,0.00,weatherlink.com 1.10,2013-09-25 05:57:00,
2013-09-25 02:11:00,43.8,43.0,29.91,NE,44,0.0,0.0,95,0.00,,,0.00,weatherlink.com 1.10,2013-09-25 06:11:00,
2013-09-25 02:25:00,43.6,42.0,29.91,NE,44,0.0,0.0,95,0.00,,,0.00,weatherlink.com 1.10,2013-09-25 06:25:00,
2013-09-25 02:41:00,43.3,42.0,29.91,NE,44,0.0,0.0,95,0.00,,,0.00,weatherlink.com 1.10,2013-09-25 06:41:00,
2013-09-25 02:57:00,43.0,42.0,29.91,NE,44,0.0,0.0,95,0.00,,,0.00,weatherlink.com 1.10,2013-09-25 06:57:00,
2013-09-25 03:12:00,42.6,41.0,29.91,NE,44,0.0,0.0,95,0.00,,,0.00,weatherlink.com 1.10,2013-09-25 07:12:00,
2013-09-25 03:26:00,42.1,41.0,29.91,NE,44,0.0,0.0,95,0.00,,,0.00,weatherlink.com 1.10,2013-09-25 07:26:00,
2013-09-25 03:42:00,41.6,40.0,29.91,NE,44,0.0,0.0,95,0.00,,,0.00,weatherlink.com 1.10,2013-09-25 07:42:00,
2013-09-25 03:56:00,41.4,40.0,29.91,NE,44,0.0,0.0,95,0.00,,,0.00,weatherlink.com 1.10,2013-09-25 07:56:00,
2013-09-25 04:11:00,41.1,40.0,29.91,NE,44,0.0,0.0,95,0.00,,,0.00,weatherlink.com 1.10,2013-09-25 08:11:00,
2013-09-25 04:27:00,41.0,40.0,29.91,NE,44,0.0,0.0,95,0.00,,,0.00,weatherlink.com 1.10,2013-09-25 08:27:00,
2013-09-25 04:42:00,41.0,40.0,29.91,NE,44,0.0,0.0,96,0.00,,,0.00,weatherlink.com 1.10,2013-09-25 08:42:00,
2013-09-25 04:57:00,40.7,40.0,29.91,NE,44,0.0,0.0,96,0.00,,,0.00,weatherlink.com 1.10,2013-09-25 08:57:00,
2013-09-25 05:13:00,40.4,39.0,29.91,NE,44,0.0,0.0,95,0.00,,,0.00,weatherlink.com 1.10,2013-09-25 09:13:00,
2013-09-25 05:27:00,40.2,39.0,29.90,NE,44,0.0,0.0,96,0.00,,,0.00,weatherlink.com 1.10,2013-09-25 09:27:00,
2013-09-25 05:42:00,40.0,39.0,29.90,NE,44,0.0,0.0,96,0.00,,,0.00,weatherlink.com 1.10,2013-09-25 09:42:00,
2013-09-25 05:57:00,40.0,39.0,29.91,NE,44,0.0,0.0,96,0.00,,,0.00,weatherlink.com 1.10,2013-09-25 09:57:00,
2013-09-25 06:12:00,39.8,39.0,29.91,NE,44,0.0,0.0,96,0.00,,,0.00,weatherlink.com 1.10,2013-09-25 10:12:00,
2013-09-25 06:28:00,39.6,39.0,29.91,NE,44,0.0,0.0,96,0.00,,,0.00,weatherlink.com 1.10,2013-09-25 10:28:00,
2013-09-25 06:42:00,39.5,39.0,29.91,NE,44,0.0,0.0,96,0.00,,,0.00,weatherlink.com 1.10,2013-09-25 10:42:00,
2013-09-25 06:58:00,39.3,38.0,29.91,NE,44,0.0,0.0,96,0.00,,,0.00,weatherlink.com 1.10,2013-09-25 10:58:00,
2013-09-25 07:12:00,40.1,39.0,29.91,NE,44,0.0,0.0,96,0.00,,,0.00,weatherlink.com 1.10,2013-09-25 11:12:00,
2013-09-25 07:28:00,41.3,40.0,29.91,NE,44,0.0,0.0,96,0.00,,,0.00,weatherlink.com 1.10,2013-09-25 11:28:00,
2013-09-25 07:42:00,43.0,42.0,29.91,NE,44,1.0,1.0,97,0.00,,,0.00,weatherlink.com 1.10,2013-09-25 11:42:00,
2013-09-25 07:58:00,48.1,47.0,29.90,North,8,2.0,2.0,97,0.00,,,0.00,weatherlink.com 1.10,2013-09-25 11:58:00,
2013-09-25 08:13:00,52.0,51.0,29.91,NW,313,2.0,5.0,97,0.00,,,0.00,weatherlink.com 1.10,2013-09-25 12:13:00,
2013-09-25 08:29:00,55.5,51.0,29.91,WNW,294,2.0,7.0,85,0.00,,,0.00,weatherlink.com 1.10,2013-09-25 12:29:00,
2013-09-25 08:45:00,57.8,50.0,29.92,NW,311,7.0,10.0,75,0.00,,,0.00,weatherlink.com 1.10,2013-09-25 12:45:00,
2013-09-25 08:59:00,59.3,51.0,29.92,NNW,338,5.0,9.0,75,0.00,,,0.00,weatherlink.com 1.10,2013-09-25 12:59:00,
2013-09-25 09:14:00,60.1,50.0,29.92,North,1,3.0,8.0,70,0.00,,,0.00,weatherlink.com 1.10,2013-09-25 13:14:00,
2013-09-25 09:29:00,60.3,49.0,29.92,NNW,327,4.0,11.0,67,0.00,,,0.00,weatherlink.com 1.10,2013-09-25 13:29:00,
2013-09-25 09:44:00,60.7,50.0,29.92,NNW,327,2.0,10.0,68,0.00,,,0.00,weatherlink.com 1.10,2013-09-25 13:44:00,
2013-09-25 09:59:00,60.7,50.0,29.92,NNW,339,4.0,9.0,67,0.00,,,0.00,weatherlink.com 1.10,2013-09-25 13:59:00,
2013-09-25 10:14:00,61.1,50.0,29.92,North,349,6.0,8.0,67,0.00,,,0.00,weatherlink.com 1.10,2013-09-25 14:14:00,
2013-09-25 10:29:00,61.6,50.0,29.92,NNE,30,2.0,9.0,65,0.00,,,0.00,weatherlink.com 1.10,2013-09-25 14:29:00,
2013-09-25 10:44:00,61.4,50.0,29.92,NW,314,8.0,9.0,67,0.00,,,0.00,weatherlink.com 1.10,2013-09-25 14:44:00,
2013-09-25 10:59:00,62.0,51.0,29.92,North,360,1.0,9.0,67,0.00,,,0.00,weatherlink.com 1.10,2013-09-25 14:59:00,
2013-09-25 11:14:00,62.3,50.0,29.92,NNW,338,1.0,9.0,65,0.00,,,0.00,weatherlink.com 1.10,2013-09-25 15:14:00,
2013-09-25 11:30:00,62.5,51.0,29.92,North,10,4.0,9.0,67,0.00,,,0.00,weatherlink.com 1.10,2013-09-25 15:30:00,
2013-09-25 11:44:00,63.0,51.0,29.92,NNW,347,5.0,8.0,64,0.00,,,0.00,weatherlink.com 1.10,2013-09-25 15:44:00,
2013-09-25 12:04:00,62.9,50.0,29.92,NNE,30,3.0,10.0,63,0.00,,,0.00,weatherlink.com 1.10,2013-09-25 16:04:00,
2013-09-25 12:15:00,62.8,50.0,29.92,North,1,7.0,8.0,63,0.00,,,0.00,weatherlink.com 1.10,2013-09-25 16:15:00,
2013-09-25 12:30:00,63.8,50.0,29.92,NNE,26,2.0,7.0,62,0.00,,,0.00,weatherlink.com 1.10,2013-09-25 16:30:00,
2013-09-25 12:45:00,63.5,51.0,29.92,NW,314,6.0,8.0,63,0.00,,,0.00,weatherlink.com 1.10,2013-09-25 16:45:00,
2013-09-25 13:04:00,63.9,50.0,29.91,North,11,6.0,8.0,62,0.00,,,0.00,weatherlink.com 1.10,2013-09-25 17:04:00,
2013-09-25 13:16:00,63.7,51.0,29.91,ENE,74,1.0,7.0,64,0.00,,,0.00,weatherlink.com 1.10,2013-09-25 17:16:00,
2013-09-25 13:30:00,65.2,50.0,29.91,NNE,13,4.0,9.0,59,0.00,,,0.00,weatherlink.com 1.10,2013-09-25 17:30:00,
2013-09-25 13:45:00,65.5,50.0,29.91,NE,56,6.0,6.0,58,0.00,,,0.00,weatherlink.com 1.10,2013-09-25 17:45:00,
2013-09-25 14:00:00,65.1,51.0,29.91,NE,55,1.0,6.0,61,0.00,,,0.00,weatherlink.com 1.10,2013-09-25 18:00:00,
2013-09-25 14:16:00,66.2,52.0,29.91,NW,323,4.0,8.0,61,0.00,,,0.00,weatherlink.com 1.10,2013-09-25 18:16:00,
2013-09-25 14:30:00,65.6,50.0,29.91,WNW,284,2.0,9.0,58,0.00,,,0.00,weatherlink.com 1.10,2013-09-25 18:30:00,
2013-09-25 14:46:00,65.8,51.0,29.91,North,1,2.0,7.0,60,0.00,,,0.00,weatherlink.com 1.10,2013-09-25 18:46:00,
2013-09-25 15:04:00,65.7,50.0,29.90,NNE,29,0.0,9.0,58,0.00,,,0.00,weatherlink.com 1.10,2013-09-25 19:04:00,
2013-09-25 15:16:00,66.4,52.0,29.90,East,79,5.0,7.0,60,0.00,,,0.00,weatherlink.com 1.10,2013-09-25 19:16:00,
2013-09-25 15:31:00,66.0,53.0,29.90,SE,135,2.0,7.0,63,0.00,,,0.00,weatherlink.com 1.10,2013-09-25 19:31:00,
2013-09-25 15:45:00,65.9,53.0,29.91,NE,39,3.0,5.0,63,0.00,,,0.00,weatherlink.com 1.10,2013-09-25 19:45:00,
2013-09-25 16:05:00,65.7,51.0,29.91,NE,47,1.0,7.0,60,0.00,,,0.00,weatherlink.com 1.10,2013-09-25 20:05:00,
2013-09-25 16:16:00,65.1,50.0,29.91,East,96,1.0,5.0,59,0.00,,,0.00,weatherlink.com 1.10,2013-09-25 20:16:00,
2013-09-25 16:31:00,64.4,50.0,29.91,ENE,67,1.0,7.0,60,0.00,,,0.00,weatherlink.com 1.10,2013-09-25 20:31:00,
2013-09-25 16:45:00,63.9,50.0,29.91,East,89,0.0,5.0,60,0.00,,,0.00,weatherlink.com 1.10,2013-09-25 20:45:00,
2013-09-25 17:04:00,62.9,49.0,29.92,NNE,17,5.0,7.0,60,0.00,,,0.00,weatherlink.com 1.10,2013-09-25 21:04:00,
2013-09-25 17:16:00,61.6,50.0,29.92,South,179,2.0,3.0,65,0.00,,,0.00,weatherlink.com 1.10,2013-09-25 21:16:00,
2013-09-25 17:31:00,60.7,49.0,29.92,ESE,102,1.0,5.0,66,0.00,,,0.00,weatherlink.com 1.10,2013-09-25 21:31:00,
2013-09-25 17:46:00,59.9,49.0,29.93,SE,134,0.0,2.0,68,0.00,,,0.00,weatherlink.com 1.10,2013-09-25 21:46:00,
2013-09-25 18:01:00,59.3,49.0,29.93,East,99,0.0,1.0,69,0.00,,,0.00,weatherlink.com 1.10,2013-09-25 22:01:00,
2013-09-25 18:16:00,58.8,50.0,29.93,East,99,0.0,1.0,72,0.00,,,0.00,weatherlink.com 1.10,2013-09-25 22:16:00,
2013-09-25 18:31:00,58.4,50.0,29.93,East,99,0.0,1.0,74,0.00,,,0.00,weatherlink.com 1.10,2013-09-25 22:31:00,
2013-09-25 18:46:00,57.9,50.0,29.93,East,95,0.0,1.0,76,0.00,,,0.00,weatherlink.com 1.10,2013-09-25 22:46:00,
2013-09-25 19:01:00,57.6,51.0,29.94,East,95,0.0,0.0,78,0.00,,,0.00,weatherlink.com 1.10,2013-09-25 23:01:00,
2013-09-25 19:17:00,57.1,51.0,29.94,East,95,0.0,1.0,79,0.00,,,0.00,weatherlink.com 1.10,2013-09-25 23:17:00,
2013-09-25 19:32:00,56.7,51.0,29.95,East,95,0.0,0.0,82,0.00,,,0.00,weatherlink.com 1.10,2013-09-25 23:32:00,
2013-09-25 19:47:00,56.2,52.0,29.95,East,95,0.0,1.0,84,0.00,,,0.00,weatherlink.com 1.10,2013-09-25 23:47:00,
2013-09-25 20:02:00,55.9,52.0,29.96,East,95,0.0,1.0,85,0.00,,,0.00,weatherlink.com 1.10,2013-09-26 00:02:00,
2013-09-25 20:17:00,55.5,51.0,29.96,East,95,0.0,0.0,86,0.00,,,0.00,weatherlink.com 1.10,2013-09-26 00:17:00,
2013-09-25 20:32:00,55.3,51.0,29.97,East,95,0.0,0.0,86,0.00,,,0.00,weatherlink.com 1.10,2013-09-26 00:32:00,
2013-09-25 20:47:00,55.1,51.0,29.96,East,95,0.0,0.0,87,0.00,,,0.00,weatherlink.com 1.10,2013-09-26 00:47:00,
2013-09-25 21:05:00,54.9,51.0,29.96,East,95,0.0,1.0,87,0.00,,,0.00,weatherlink.com 1.10,2013-09-26 01:05:00,
2013-09-25 21:16:00,54.8,51.0,29.97,East,95,0.0,1.0,88,0.00,,,0.00,weatherlink.com 1.10,2013-09-26 01:16:00,
2013-09-25 21:32:00,54.8,51.0,29.97,East,95,0.0,1.0,88,0.00,,,0.00,weatherlink.com 1.10,2013-09-26 01:32:00,
2013-09-25 21:46:00,54.6,51.0,29.98,East,95,0.0,1.0,88,0.00,,,0.00,weatherlink.com 1.10,2013-09-26 01:46:00,
2013-09-25 22:05:00,54.4,51.0,29.98,East,95,1.0,1.0,88,0.00,,,0.00,weatherlink.com 1.10,2013-09-26 02:05:00,
2013-09-25 22:17:00,54.2,51.0,29.98,East,95,0.0,0.0,89,0.00,,,0.00,weatherlink.com 1.10,2013-09-26 02:17:00,
2013-09-25 22:32:00,53.9,51.0,29.98,East,95,0.0,1.0,89,0.00,,,0.00,weatherlink.com 1.10,2013-09-26 02:32:00,
2013-09-25 22:47:00,53.6,51.0,29.98,East,95,0.0,0.0,90,0.00,,,0.00,weatherlink.com 1.10,2013-09-26 02:47:00,
2013-09-25 23:05:00,53.4,51.0,29.99,East,95,0.0,1.0,90,0.00,,,0.00,weatherlink.com 1.10,2013-09-26 03:05:00,
2013-09-25 23:17:00,53.3,51.0,29.99,East,95,0.0,0.0,91,0.00,,,0.00,weatherlink.com 1.10,2013-09-26 03:17:00,
2013-09-25 23:32:00,53.4,51.0,29.99,East,95,0.0,1.0,92,0.00,,,0.00,weatherlink.com 1.10,2013-09-26 03:32:00,
2013-09-25 23:48:00,53.5,51.0,29.99,East,95,0.0,1.0,92,0.00,,,0.00,weatherlink.com 1.10,2013-09-26 03:48:00,